This demonstration page uses our WeatherBlox Daily Observations layout. Learn more.

Left ArrowRight Arrow

38.83388, -104.82136

Hourly Observations for March 15, 2021

Temp ( °F °C ) Dew Point ( °F °C ) Humidity (%) Winds ( mph kmh ) Pressure ( in mb ) Visibility ( mi km ) Precip ( " mm )
12:58 am 00:58 Clear 23 -4.8 13 -10.4 65 65 NNW 15 24 29.57 1001 10 16 0.00 0.00
1:58 am 01:58 Cloudy 25 -3.7 12 -11.1 57 57 NE 5 7 29.56 1001 10 16 0.00 0.00
2:58 am 02:58 Mostly Cloudy 23 -4.8 13 -10.3 66 66 NW 9 15 29.58 1002 10 16 0.00 0.00
3:58 am 03:58 Partly Cloudy 24 -4.4 12 -11.1 60 60 NNW 10 17 29.52 1000 10 16 0.00 0.00
4:58 am 04:58 Mostly Clear 22 -5.4 11 -11.6 62 62 Calm 29.55 1001 10 16 0.00 0.00
5:58 am 05:58 Mostly Cloudy 24 -4.5 11 -11.9 57 57 NW 3 6 29.54 1000 10 16 0.00 0.00
6:58 am 06:58 Cloudy 23 -5 12 -11.2 62 62 Calm 29.58 1002 10 16 0.00 0.00
8:58 am 08:58 Mostly Cloudy 22 -5.3 14 -9.9 70 70 SE 8 13 29.59 1002 10 16 0.00 0.00
9:58 am 09:58 Partly Cloudy 25 -4 15 -9.3 67 67 Calm 29.58 1002 10 16 0.00 0.00
10:58 am 10:58 Partly Cloudy 26 -3.2 19 -7.1 75 75 ESE 8 13 29.53 1000 10 16 0.00 0.00
11:58 am 11:58 Mostly Cloudy 27 -2.8 21 -6.1 78 78 SE 6 9 29.51 999 10 16 0.00 0.00
12:58 pm 12:58 Mostly Cloudy 27 -2.7 23 -4.9 85 85 SE 10 17 29.52 1000 10 16 0.00 0.00
1:58 pm 13:58 Sunny 29 -1.4 24 -4.2 81 81 SE 9 15 29.47 998 10 16 0.00 0.00
2:58 pm 14:58 Sunny 31 -0.7 25 -3.7 80 80 SE 7 11 29.50 999 10 16 0.00 0.00
3:58 pm 15:58 Mostly Sunny 30 -0.9 26 -3.2 85 85 ESE 5 7 29.51 999 10 16 0.00 0.00
4:58 pm 16:58 Mostly Cloudy 31 -0.5 27 -2.6 86 86 SSE 6 9 29.51 999 10 16 0.00 0.00
5:58 pm 17:58 Mostly Cloudy 32 0.2 27 -2.7 81 81 Calm 29.50 999 10 16 0.00 0.00
6:58 pm 18:58 Partly Cloudy 32 -0.2 27 -2.7 83 83 Calm 29.53 1000 10 16 0.00 0.00
7:58 pm 19:58 Clear 31 -0.3 27 -2.9 83 83 WNW 3 6 29.52 1000 10 16 0.00 0.00
8:58 pm 20:58 Clear 31 -0.6 27 -2.8 85 85 NW 5 7 29.56 1001 10 16 0.00 0.00
9:58 pm 21:58 Clear 32 0 28 -2.2 85 85 NW 7 11 29.53 1000 10 16 0.00 0.00
10:58 pm 22:58 Clear 34 1.1 23 -4.8 65 65 N 3 6 29.53 1000 10 16 0.00 0.00
11:58 pm 23:58 Clear 36 2.1 20 -6.6 53 53 WNW 6 9 29.51 999 10 16 0.00 0.00

Powered by AerisWeather